EHI
0 0 0 0 0 0 0 0 0 0 0 0 0 0 0 0 0 0 0 0 0 0 0 0 0 0 0 0 0 0 0 0 0 0 0 0 0 0 0 0 0 0 0 0
0 0 0 0 0 0 0 0 0 0 0 0 0 0 0 0 0 0 0 0 0 0 0 0 0 0 0 0 0 0 0 0 0 0 0 0 0 0 0 0 0 0 0 0
0 0 0 0 0 0 0 0 0 0 0 0 0 0 0 0 0 0 0 0 0 0 0 0 0 0 0 0 0 0 0 0 0 0 0 0 0 0 0 0 0 0 0 0
0 0 0 0 0 0 0 0 0 0 0 0 0 0 0 0 0 0 0 0 0 0 0 0 0 0 0 0 0 0 0 0 0 0 0 0 0 0 0 0 0 0 0 0
0 0 0 0 0 0 0 0 0 0 0 0 0 0 0 0 0 0 0 0 0 0 0 0 0 0 0 0 0 0 0 0 0 0 0 0 0 0 0 0 0 0 0 0
0 0 0 0 0 0 0 0 0 0 0 0 0 0 0 0 0 0 0 0 0 0 0 0 0 0 0 0 0 0 0 0 0 0 0 0 0 0 0 0 0 0 0 0
0 0 0 0 0 0 0 0 0 0 0 0 0 0 0 0 0 0 0 0 0 0 0 0 0 0 0 0 0 0 0 0 0 0 0 0 0 0 0 0 0 0 0 0
0 0 0 0 0 0 0 0 0 0 0 0 0 0 0 0 0 0 0 0 0 0 0 0 0 0 0 0 0 0 0 0 0 0 0 0 0 0 0 0 0 0 0 0
0 0 0 0 0 0 0 0 0 0 0 0 0 0 0 0 0 0 0 0 0 0 0 0 0 0 0 0 0 0 0 0 0 0 0 0 0 0 0 0 0 0 0 0
0 0 0 0 0 0 0 0 0 0 0 0 0 0 0 0 0 0 0 0 0 0 0 0 0 0 0 0 0 0 0 0 0 0 0 0 0 0 0 0 0 0 0 0
0 0 0 0 0 0 0 0 0 0 0 0 0 0 0 0 0 0 0 0 0 0 0 0 0 0 0 0 0 0 0 0 0 0 0 0 0 0 0 0 0 0 0 0
0 0 0 0 0 0 0 0 0 0 0 0 0 0 0 0 0 0 0 0 0 0 0 0 0 0 0 0 0 0 0 0 0 0 0 0 0 0 0 0 0 0 0 0
0 0 0 0 0 0 0 0 0 0 0 0 0 0 0 0 0 0 0 0 0 0 0 0 0 0 0 0 0 0 0 0 0 0 0 0 0 0 0 0 0 0 0 0
0 0 0 0 0 0 0 0 0 0 0 0 0 0 0 0 0 0 0 0 0 0 0 0 0 0 0 0 0 0 0 0 0 0 0 0 0 0 0 0 0 0 0 0
0 0 0 0 0 0 0 0 0 0 0 0 0 0 0 0 0 0 0 0 0 0 0 0 0 0 0 0 0 0 0 0 0 0 0 0 0 0 0 0 0 0 0 0
0 0 0 0 0 0 0 0 0 0 0 0 0 0 0 0 0 0 0 0 0 0 0 0 0 0 0 0 0 0 0 0 0 0 0 0 0 0 0 0 0 0 0 0
0 0 0 0 0 0 0 0 0 0 0 0 0 0 0 0 0 0 0 0 0 0 0 0 0 0 0 0 0 0 0 0 0 0 0 0 0 0 0 0 0 0 0 0
0 0 0 0 0 0 0 0 0 0 0 0 0 0 0 0 0 0 0 0 0 0 0 0 0 0 0 0 0 0 0 0 0 0 0 0 0 0 0 0 0 0 0 0
0 0 0 0 0 0 0 0 0 0 0 0 0 0 0 0 0 0 0 0 0 0 0 0 0 0 0 0 0 0 0 0 0 0 0 0 0 0 0 0 0 0 0 0
0 0 0 0 0 0 0 0 0 0 0 0 0 0 0 0 0 0 0 0 0 0 0 0 0 0 0 0 0 0 0 0 0 0 0 0 0 0 0 0 0 0 0 0
0 0 0 0 0 0 0 0 0 0 0 0 0 0 0 0 0 0 0 0 0 0 0 0 0 0 0 0 0 0 0 0 0 0 0 0 0 0 0 0 0 0 0 0
0 0 0 0 0 0 0 0 0 0 0 0 0 0 0 0 0 0 0 0 0 0 0 0 0 0 0 0 0 0 0 0 0 0 0 0 0 0 0 0 0 0 0 0
0 0 0 0 0 0 0 0 0 0 0 0 0 0 0 0 0 0 0 0 0 0 0 0 0 0 0 0 0 0 0 0 0 0 0 0 0 0 0 0 0 0 0 0
0 0 0 0 0 0 0 0 0 0 0 0 0 0 0 0 0 0 0 0 0 0 0 0 0 0 0 0 0 0 0 0 0 0 0 0 0 0 0 0 0 0 0 0
0 0 0 0 0 0 0 0 0 0 0 0 0 0 0 0 0 0 0 0 0 0 0 0 0 0 0 0 0 0 0 0 0 0 0 0 0 0 0 0 0 0 0 0
0 0 0 0 0 0 0 0 0 0 0 0 0 0 0 0 0 0 0 0 0 0 0 0 0 0 0 0 0 0 0 0 0 0 0 0 0 0 0 0 0 0 0 0
0 0 0 0 0 0 0 0 0 0 0 0 0 0 0 0 0 0 0 0 0 0 0 0 0 0 0 0 0 0 0 0 0 0 0 0 0 0 0 0 0 0 0 0
Wind_Speed
4 3 2 2 3 3 3 2 2 6 7 7 8 8 9 7 8 11 13 15 15 15 15 15 15 15 15 14 13 14 14 13 12 13 14 14 15 16 16 15 16 16 16 15
5 5 4 4 5 4 3 1 4 6 7 6 8 7 9 5 11 13 14 14 15 16 16 16 14 15 15 13 13 14 14 14 13 13 13 13 14 13 15 14 13 13 13 14
4 6 3 2 2 2 2 3 3 4 7 9 10 12 10 8 11 13 13 13 14 14 13 13 12 13 13 13 13 13 13 14 14 13 13 13 15 14 13 13 11 9 10 11
2 5 0 3 2 2 4 6 2 5 8 9 9 11 2 6 9 11 11 10 9 9 10 9 9 11 11 11 12 13 13 14 14 13 13 13 14 14 13 10 10 8 7 8
3 2 6 3 3 4 4 5 2 6 9 8 9 6 2 6 8 9 8 7 6 7 8 9 10 11 10 10 12 12 13 14 14 13 13 12 13 13 11 10 9 9 7 6
3 1 5 4 5 4 0 5 5 5 6 7 9 9 3 7 8 7 6 7 8 8 7 8 10 10 9 10 12 13 14 13 13 12 12 10 12 12 11 10 11 10 8 7
3 4 8 6 5 2 3 6 8 3 2 4 4 5 8 8 7 7 7 7 8 8 7 7 9 10 10 10 12 13 13 13 13 13 11 9 11 10 10 10 10 10 10 9
4 4 9 5 1 2 6 6 4 2 2 4 7 7 7 8 8 8 8 8 8 8 8 7 9 10 10 10 12 13 13 13 13 12 11 11 11 11 10 9 9 8 7 8
8 8 5 3 4 4 4 3 1 1 2 4 4 5 7 8 7 7 7 8 8 8 8 7 8 10 10 11 12 13 13 13 12 12 10 10 10 10 9 8 9 7 6 6
4 5 4 3 2 2 1 2 3 1 1 0 2 4 5 7 8 8 8 8 8 8 8 8 9 11 9 11 12 12 11 11 9 8 10 9 9 9 9 9 9 9 9 8
4 5 3 2 2 1 4 4 3 1 2 2 2 3 4 4 6 7 9 9 8 8 9 10 10 10 11 11 11 10 9 9 9 8 8 7 7 8 10 7 12 10 8 7
7 6 4 3 1 3 4 3 2 2 3 3 3 2 4 4 5 6 7 8 10 10 11 10 10 10 10 10 10 9 10 9 7 6 6 6 5 6 13 14 18 19 18 15
5 4 4 1 3 3 4 4 3 4 4 3 2 3 4 4 6 7 8 10 10 10 10 10 10 10 10 10 11 9 9 10 7 7 6 7 7 6 6 10 15 17 18 19
2 3 2 2 3 4 4 5 6 6 5 3 3 3 3 4 4 6 7 8 9 10 10 10 11 11 11 11 12 11 9 12 11 7 5 5 5 6 5 6 6 6 11 16
4 4 4 5 5 4 4 5 6 4 3 4 4 4 4 5 5 6 7 8 9 10 10 11 12 12 12 12 13 12 11 9 9 7 6 5 5 6 5 5 5 5 5 8
4 5 5 4 5 4 4 4 4 3 3 3 4 4 4 4 5 6 6 8 9 11 11 11 12 13 13 13 13 11 10 19 18 10 6 7 6 6 6 6 5 5 5 5
4 2 2 3 4 4 4 4 4 4 3 2 3 4 5 5 6 7 8 8 8 10 11 11 13 15 15 13 12 11 11 14 21 14 9 9 8 8 7 7 6 6 6 8
4 4 3 4 5 6 6 5 5 4 2 2 2 4 5 7 8 9 10 11 11 11 10 10 13 15 12 12 12 11 12 12 11 10 10 10 10 9 8 8 8 8 7 8
6 6 6 6 6 7 6 5 4 4 2 2 3 4 4 6 7 9 10 10 11 12 11 12 23 16 13 17 20 11 12 12 12 11 11 14 13 9 9 9 9 8 8 7
7 7 7 7 6 6 5 5 5 3 2 2 2 4 5 7 8 9 10 9 7 8 13 17 14 11 14 16 20 11 12 13 13 12 12 11 11 10 10 10 9 9 8 8
8 7 7 7 6 6 6 6 5 4 2 2 2 4 5 7 8 8 9 11 10 12 15 20 14 12 14 17 18 11 12 12 13 12 12 12 12 11 11 10 9 9 8 7
7 7 8 7 7 6 4 4 4 4 2 1 3 4 5 7 9 9 7 7 10 21 15 10 11 18 24 21 12 12 13 13 13 12 13 13 13 12 11 9 8 7 6 6
7 8 8 8 7 6 5 3 3 3 1 1 3 4 5 6 6 7 10 9 10 20 15 10 20 28 29 15 12 13 14 14 14 14 14 13 13 13 13 11 5 2 2 3
7 8 7 7 7 6 5 3 2 1 1 3 4 4 4 5 6 4 7 15 21 21 12 17 27 28 24 12 12 13 13 13 13 13 13 12 12 13 13 12 9 6 4 3
8 7 7 8 7 5 5 4 2 1 2 3 4 4 3 3 5 8 10 11 18 18 11 17 25 26 16 12 13 13 13 14 15 13 12 12 11 11 12 11 10 8 6 5
7 7 7 6 5 5 4 4 3 2 1 1 2 3 3 4 6 7 8 9 12 16 12 10 12 15 12 12 13 14 14 15 13 9 10 10 10 10 9 9 10 7 6 5
7 6 5 4 4 5 4 4 3 3 2 0 2 3 4 5 6 7 9 9 9 10 9 10 10 10 11 12 13 14 13 14 13 9 8 8 7 6 7 8 6 5 5 5
Wind_Direction
287 333 330 319 2 36 59 59 258 285 293 296 314 308 312 323 340 344 348 352 354 352 350 347 347 344 340 336 337 337 337 336 335 337 339 341 344 346 350 357 2 5 15 24
322 12 19 56 30 50 58 23 298 300 295 284 297 300 323 348 350 349 349 351 352 351 348 344 345 341 337 335 339 340 340 338 337 340 342 342 342 346 349 353 1 9 14 16
290 324 61 16 346 43 313 275 278 289 283 301 312 319 328 354 354 348 346 350 351 349 344 340 340 336 335 338 339 342 342 340 339 340 342 345 347 347 347 350 352 6 12 13
305 21 98 242 223 213 265 269 266 279 282 286 294 300 8 29 356 346 346 349 346 341 333 330 330 330 332 335 339 341 342 343 341 341 342 343 346 347 343 344 349 354 9 9
84 351 285 274 268 271 283 281 231 277 290 307 315 297 152 28 1 344 350 353 341 333 325 329 330 328 332 339 342 343 343 341 339 340 341 347 349 346 343 343 348 351 5 6
104 281 262 231 256 282 4 288 263 273 299 318 332 336 321 7 355 351 6 2 350 338 332 337 335 333 333 341 344 344 341 338 336 338 338 346 348 345 345 348 353 356 8 9
166 229 264 250 272 47 75 279 289 291 296 312 310 293 322 349 352 2 11 357 346 336 329 327 332 337 339 341 342 339 338 338 340 340 339 350 346 344 344 349 353 359 6 8
163 212 260 244 222 168 239 257 272 273 282 287 292 313 335 345 350 360 356 351 346 340 332 327 335 340 340 341 337 337 338 340 340 343 349 354 343 343 344 348 346 346 353 358
189 213 227 228 225 226 234 273 300 168 277 291 309 329 344 349 350 352 348 346 342 335 330 332 336 340 338 339 338 339 339 340 340 346 347 346 343 343 346 351 348 346 349 350
228 254 244 247 234 310 28 97 112 137 249 48 330 341 356 351 350 348 344 344 337 334 335 337 338 340 332 333 337 337 337 336 337 345 345 343 346 349 351 353 355 3 358 351
243 275 311 304 348 41 105 110 119 117 119 91 54 26 359 341 347 344 342 338 337 334 337 336 333 330 330 332 331 332 332 332 334 343 337 334 341 346 351 345 357 360 351 346
216 220 199 259 314 127 141 148 159 151 114 77 73 35 360 350 343 339 338 337 337 338 338 331 326 323 322 326 326 327 336 334 328 331 332 332 327 337 346 352 355 357 354 355
200 193 180 164 106 110 132 143 132 110 112 100 63 37 14 348 346 349 344 337 334 333 329 322 320 319 319 323 323 320 321 322 318 326 323 328 330 326 324 334 344 349 352 353
126 117 105 66 103 102 110 108 102 94 94 85 49 28 3 345 337 338 330 322 326 324 321 319 318 316 316 317 318 316 311 312 315 302 296 299 304 305 307 314 318 318 334 344
95 109 132 120 116 110 106 108 104 95 73 48 25 9 354 347 336 323 315 324 328 322 318 317 318 316 315 314 316 314 310 303 297 288 277 280 288 291 290 290 290 296 305 324
108 110 125 131 141 132 118 119 124 110 69 37 4 350 339 328 317 312 315 327 326 318 313 312 312 313 314 312 313 309 299 302 305 296 286 290 285 278 276 274 275 275 281 287
131 153 163 155 151 135 121 124 125 112 85 34 349 343 341 334 328 329 328 321 308 298 299 302 308 312 307 307 307 300 294 296 299 298 293 289 283 277 272 267 264 265 264 275
147 161 160 160 154 140 130 121 110 99 80 22 12 7 355 346 335 324 319 318 316 312 305 306 309 305 303 308 303 295 295 296 299 301 300 296 290 280 273 268 266 267 268 276
130 128 119 114 121 129 132 127 116 110 87 53 28 1 336 324 314 311 314 316 316 317 313 311 314 320 311 311 312 303 307 315 318 315 308 304 303 290 279 271 266 263 264 266
123 121 116 110 110 122 128 127 127 117 93 60 20 359 348 331 320 319 318 311 296 295 302 309 318 320 315 310 320 330 331 325 319 314 311 305 299 291 280 270 262 256 252 252
139 136 132 129 125 125 127 136 136 126 101 58 26 356 333 318 317 318 319 319 316 315 317 328 334 321 318 333 343 336 329 325 322 318 314 309 303 295 285 273 262 253 247 244
148 146 147 141 132 124 123 135 137 129 109 15 349 343 335 326 323 318 302 289 306 323 331 329 326 330 343 350 340 334 331 329 326 322 320 320 319 316 306 290 267 250 239 230
150 151 151 150 143 135 128 133 140 138 147 310 324 331 326 314 315 317 321 318 320 330 336 327 334 343 352 350 337 333 332 332 330 330 334 338 343 343 339 330 314 266 203 197
145 147 143 134 128 134 153 177 178 177 248 283 291 298 304 315 315 292 296 318 331 336 337 335 344 348 353 345 336 336 336 335 336 343 347 353 358 357 360 6 22 46 63 77
135 134 138 144 154 167 174 175 180 231 262 280 294 302 304 295 296 309 315 319 330 341 338 338 345 348 349 339 340 340 338 339 347 354 355 3 6 7 11 17 27 37 41 38
142 153 161 167 163 158 162 166 179 196 198 313 328 330 326 315 306 310 318 324 331 341 341 335 337 342 343 342 342 342 340 340 344 355 359 6 8 10 13 15 19 23 23 23
136 144 147 149 159 166 170 171 173 178 183 242 321 328 330 327 328 330 331 336 338 340 338 338 339 341 342 344 343 344 342 343 345 355 1 5 8 7 8 10 10 6 4 9